Temperature
18 18 18 18 18 18 18 18 18 17 17 17 16 16 16 15 15 15 15 14 14 14 14 14 13 13 13 13 13 13 13 13 13 14 14 15 15 15 15 16 16 16 16
17 18 18 18 18 18 18 18 17 17 17 16 16 16 15 15 14 14 14 14 13 13 13 13 13 13 13 13 13 13 13 13 13 13 13 14 14 15 15 15 15 15 15
18 18 18 18 18 18 18 18 17 17 16 16 15 15 15 14 14 13 13 13 13 12 12 12 12 12 12 12 12 12 12 12 12 12 12 12 13 13 14 15 15 15 15
19 19 19 18 18 18 18 17 17 16 16 15 15 14 14 14 13 13 12 12 12 11 11 11 11 11 11 12 12 12 12 12 12 12 12 12 12 12 13 14 14 14 14
19 19 19 19 18 18 17 17 17 16 16 15 15 14 14 13 13 12 12 11 11 11 11 11 11 11 11 11 11 11 11 11 11 11 11 12 12 12 11 12 13 14 14
19 19 19 19 18 18 17 17 17 16 15 15 14 14 13 12 12 11 11 11 11 10 10 10 10 10 10 10 11 11 11 11 11 11 11 11 11 11 11 11 12 13 14
19 19 19 19 18 18 17 17 16 16 15 14 14 13 12 12 11 11 10 10 10 10 10 10 10 9 9 10 10 10 10 10 10 10 11 11 11 11 11 11 11 12 13
20 20 19 19 18 18 17 17 16 15 14 14 13 12 12 11 11 10 10 10 10 10 9 9 9 9 9 9 9 9 9 10 10 10 10 10 10 10 10 10 10 11 12
20 20 19 19 18 18 17 16 15 15 14 13 12 12 11 11 11 10 10 10 9 9 9 9 9 9 9 9 9 9 9 9 9 9 9 10 10 10 10 10 10 10 10
20 20 19 18 18 17 16 15 15 14 13 12 12 11 11 11 10 10 10 9 9 9 9 9 9 9 9 9 9 8 8 8 9 9 9 9 9 10 10 10 10 10 10
20 19 19 18 17 16 16 15 14 13 13 12 11 11 11 10 10 10 9 9 9 9 9 9 9 9 9 9 8 8 8 8 8 8 9 9 9 9 9 10 10 10 10
19 19 18 18 17 16 15 14 13 13 12 12 11 11 10 10 10 10 9 9 9 9 9 9 9 9 9 8 8 8 8 8 8 8 8 8 9 9 9 9 9 10 10
19 19 18 17 16 16 15 14 13 12 12 11 11 10 10 10 10 10 9 9 9 9 9 9 9 9 8 8 8 8 8 8 8 8 8 8 8 8 9 9 9 9 10
19 18 18 17 16 15 14 13 13 12 11 11 10 10 10 10 9 9 9 9 9 9 9 8 8 8 8 8 8 8 8 8 8 8 8 8 8 8 8 9 9 9 9
19 18 17 17 16 15 14 13 12 12 11 11 10 10 10 9 9 9 9 9 9 9 8 8 8 8 8 8 8 8 8 8 8 8 8 8 8 8 8 8 8 9 9
19 18 17 16 15 14 13 13 12 11 11 10 10 10 10 9 9 9 9 9 9 8 8 8 8 8 8 8 8 8 8 8 8 8 8 8 8 8 8 8 8 8 8
19 18 17 16 15 14 13 12 12 11 11 10 10 10 9 9 9 9 9 9 8 8 8 8 8 8 8 8 8 8 8 8 8 8 8 8 8 8 8 8 8 8 8
19 18 17 16 15 14 13 12 12 11 11 10 10 10 9 9 9 9 9 8 8 8 8 8 8 8 8 8 8 8 8 8 8 8 7 7 7 7 7 7 7 8 8
18 17 16 15 14 14 13 12 12 11 11 10 10 9 9 9 9 9 9 8 8 8 8 8 8 8 8 8 8 8 7 7 7 7 7 7 7 7 7 7 7 7 8
18 17 16 15 14 14 13 12 12 11 11 10 10 9 9 9 9 8 8 8 8 8 8 8 8 8 8 8 8 7 7 7 7 7 7 7 7 7 7 7 7 7 7
18 17 16 15 14 13 13 12 12 11 11 10 10 10 9 9 9 9 8 8 8 8 8 8 8 8 8 8 8 7 7 7 7 7 7 7 7 7 7 6 6 7 7
18 17 16 15 14 13 13 12 12 11 11 10 10 10 9 9 9 9 8 8 8 8 8 8 8 8 8 7 7 7 7 6 6 6 6 6 6 6 6 6 6 7 6
18 17 16 15 14 14 13 13 12 11 11 10 10 10 9 9 9 9 8 8 8 8 8 8 7 8 7 7 7 7 6 6 6 6 6 6 6 6 6 6 6 6 6
18 17 16 15 15 14 13 13 12 11 11 10 10 10 9 9 9 9 9 8 8 8 8 7 7 7 7 7 7 7 6 6 6 6 6 6 6 6 6 6 6 6 6
18 17 16 16 15 14 13 13 12 11 11 10 10 10 9 9 9 9 9 9 8 8 7 7 7 7 7 7 6 6 6 6 6 6 6 6 6 6 6 6 6 6 6
18 17 17 16 15 14 14 13 12 11 11 11 10 10 10 9 9 9 9 9 9 8 8 7 7 7 7 7 7 6 6 6 6 6 6 6 6 6 6 6 6 6 7
Wind_Speed
5 5 6 5 5 4 5 5 4 3 3 2 2 1 0 1 2 2 4 4 4 5 3 2 3 2 2 3 3 2 3 3 2 3 5 5 7 9 9 9 9 11 13
5 6 7 6 6 6 6 5 4 3 2 1 1 1 0 1 2 3 4 5 6 6 4 3 3 3 3 4 3 1 1 2 2 2 3 4 4 3 6 7 8 9 8
9 8 8 8 7 7 7 6 6 4 3 2 2 2 2 2 3 3 3 5 7 7 5 5 3 3 3 3 3 2 2 2 2 2 2 2 3 4 3 4 6 6 6
8 8 9 9 9 8 6 5 5 4 4 3 2 2 2 2 3 3 3 5 6 6 6 5 4 3 3 4 4 3 3 2 3 2 3 4 3 3 4 3 3 5 6
9 9 9 9 7 6 5 5 5 4 3 3 3 3 3 3 3 3 5 5 5 6 6 6 4 3 3 3 4 3 3 3 3 3 2 3 3 4 4 5 4 4 4
7 7 7 6 5 5 5 5 5 4 3 3 3 4 5 5 5 5 5 5 4 5 5 5 4 4 3 4 4 4 4 4 4 4 3 3 3 2 3 5 6 6 5
6 6 6 6 6 5 5 4 4 4 3 3 3 4 5 5 6 7 6 6 5 4 6 5 4 4 4 5 4 4 4 4 5 5 4 4 5 4 3 4 5 5 5
5 6 7 6 6 6 5 4 4 4 3 4 4 4 5 4 5 7 6 6 6 6 7 7 6 6 6 6 5 4 5 4 5 6 6 5 5 5 4 3 4 5 4
5 5 5 5 5 5 4 4 4 4 4 5 5 6 6 6 7 7 6 6 7 7 7 7 7 7 7 6 5 5 6 5 6 6 6 5 5 5 5 5 5 4 5
5 5 4 4 3 3 2 2 3 4 5 5 5 5 6 6 6 6 7 7 8 7 8 8 8 8 7 7 6 6 7 7 7 6 6 6 5 5 5 5 5 5 5
7 5 4 3 2 1 2 3 4 4 5 6 5 6 6 6 6 6 8 8 8 8 8 9 8 8 9 8 7 8 8 8 8 7 7 8 7 6 5 5 5 6 5
5 3 3 2 2 3 3 4 5 6 6 6 5 6 6 6 7 8 8 8 8 8 9 9 9 10 9 8 8 9 9 9 10 9 9 9 7 8 6 6 7 6 6
5 3 2 3 4 4 5 6 6 7 6 5 6 6 7 7 8 8 9 8 8 9 9 8 9 10 10 10 10 10 10 10 10 10 10 10 9 9 7 7 7 6 7
5 4 4 5 5 6 6 6 7 6 6 5 6 7 8 8 8 9 9 9 9 9 10 10 10 10 11 11 11 10 11 10 10 10 10 10 10 10 10 8 8 8 7
6 7 7 6 6 6 7 6 7 6 5 5 6 8 8 8 8 9 9 9 9 10 10 10 10 10 10 10 11 11 11 11 11 11 10 11 13 14 11 9 8 8 7
9 9 8 7 7 8 7 7 7 7 5 6 8 8 7 8 8 9 9 9 10 10 10 10 11 11 10 12 14 13 11 11 11 12 11 11 13 15 16 17 15 12 10
10 9 9 9 8 8 7 7 7 6 5 7 8 8 8 8 9 9 9 10 10 10 10 11 11 12 13 15 16 17 12 12 12 12 11 11 11 12 11 13 15 15 16
10 9 8 8 7 6 6 6 6 6 6 7 8 8 8 9 9 9 10 10 9 10 10 11 11 11 13 15 15 15 12 11 12 12 12 12 12 12 11 11 11 11 12
10 9 9 7 6 7 7 5 6 6 7 8 9 8 8 9 9 10 11 10 9 10 10 10 11 12 13 14 14 12 8 8 11 11 11 12 13 14 14 12 12 12 11
8 8 7 6 6 7 5 5 7 7 8 9 8 8 8 8 10 11 11 10 9 10 11 11 11 11 12 13 14 11 6 8 9 9 10 13 14 14 14 13 12 12 11
9 8 7 7 8 7 5 6 7 8 9 8 7 8 8 8 10 10 9 10 10 10 10 11 11 10 11 12 13 11 6 7 8 8 8 8 12 14 15 14 12 13 11
9 9 8 8 7 6 6 7 9 9 7 7 7 8 8 8 8 9 10 9 9 9 10 10 10 8 8 9 10 11 9 8 8 8 7 8 10 12 13 11 12 13 11
10 8 9 8 7 6 7 9 9 7 6 6 8 8 9 8 8 8 9 9 8 7 8 8 9 9 7 7 10 10 10 9 7 7 9 10 10 9 9 12 13 11 9
10 8 8 8 9 7 8 9 8 6 5 7 8 8 8 9 9 7 7 7 8 8 8 8 8 9 8 7 5 5 5 6 5 5 7 8 8 7 6 6 8 8 9
9 8 9 10 10 8 8 8 7 5 6 7 8 8 8 8 9 9 7 8 8 9 9 8 8 9 9 8 7 6 4 4 4 4 3 3 3 4 4 4 5 7 8
8 8 9 10 9 8 8 8 6 6 6 7 7 6 7 7 7 8 9 10 10 13 13 12 10 9 11 12 10 9 8 8 6 3 3 4 4 5 5 5 5 6 7
Wind_Direction
187 182 180 178 170 178 180 176 169 170 145 118 114 101 14 337 344 346 351 355 357 355 346 328 316 309 288 279 286 290 301 295 296 297 296 280 256 248 243 239 240 238 235
188 194 195 197 198 199 202 201 197 188 175 145 136 141 145 289 290 316 334 347 348 342 334 311 298 288 279 285 283 259 292 295 310 296 308 313 313 282 247 237 238 241 237
201 204 204 208 210 212 209 207 205 200 194 166 116 75 38 357 336 327 325 329 333 331 326 310 289 279 252 259 262 236 231 267 290 255 262 299 302 316 290 251 244 243 240
211 210 211 213 216 219 211 204 199 200 201 179 175 181 197 256 263 277 292 305 314 317 317 312 300 281 264 260 261 237 221 227 267 287 250 247 260 284 306 299 270 260 251
218 217 216 217 219 214 202 198 194 204 205 195 193 198 230 244 272 288 293 298 304 305 304 304 301 288 271 263 259 253 230 219 232 247 266 268 264 249 269 293 308 303 271
222 221 217 207 210 197 188 182 185 208 214 215 217 217 242 260 278 284 286 289 294 295 293 292 288 283 276 270 263 254 246 234 235 242 241 243 257 267 263 279 299 299 288
222 216 205 196 193 186 184 176 182 219 235 239 246 243 246 250 254 265 268 275 281 282 285 287 278 275 270 270 265 259 255 242 238 240 241 241 245 249 255 274 289 295 295
218 209 201 192 189 186 182 181 196 226 244 249 260 262 253 247 253 257 257 262 264 269 276 278 272 268 267 270 262 259 260 251 246 251 247 248 250 245 242 250 279 298 294
198 190 186 182 181 180 182 188 200 232 253 257 265 271 267 259 261 266 264 264 265 272 273 273 274 273 269 266 262 258 262 261 254 254 253 249 253 249 245 244 244 262 290
179 176 173 171 171 179 187 198 216 239 257 264 265 269 270 268 267 272 274 272 272 273 278 279 276 275 272 267 258 258 260 260 259 252 251 251 251 250 247 242 242 240 252
188 183 179 171 171 183 218 244 254 260 269 270 271 275 276 276 277 274 273 274 276 278 278 278 279 278 276 270 261 258 257 255 258 256 250 252 251 249 247 243 242 242 242
184 179 178 175 204 242 258 262 266 265 266 270 274 275 277 283 284 281 280 279 278 279 277 277 277 277 276 270 264 266 264 255 256 256 251 254 254 248 245 241 241 242 239
175 173 187 220 243 257 265 269 269 267 272 276 277 281 283 282 281 281 283 284 281 282 282 277 274 275 274 273 268 263 263 258 255 253 249 250 249 251 247 241 241 243 245
187 197 225 243 253 260 265 270 273 269 273 276 276 278 279 278 280 283 284 283 281 281 281 279 275 273 273 273 271 268 265 262 257 252 248 246 243 245 246 243 240 241 243
210 218 227 239 251 262 267 268 271 273 274 276 276 274 279 281 282 283 284 284 282 281 277 279 278 275 274 269 265 264 265 262 262 258 251 247 244 242 240 238 235 232 235
222 227 231 237 244 250 258 266 270 271 271 271 274 279 284 285 285 285 286 288 287 285 282 279 277 277 274 269 268 268 268 265 263 262 257 252 253 252 248 243 237 227 227
223 226 228 231 238 244 247 255 263 272 272 271 276 281 281 284 286 290 292 290 289 286 285 283 278 276 274 270 271 271 269 264 262 259 257 258 254 246 242 243 242 238 233
222 227 228 231 237 239 245 254 266 269 270 273 277 279 279 283 288 291 290 289 288 286 285 284 282 279 278 273 270 271 270 264 260 257 253 253 255 250 239 238 240 240 239
215 220 220 220 230 240 244 253 267 269 273 274 277 279 279 285 290 291 290 289 289 289 287 285 283 281 281 277 273 272 269 264 264 261 255 251 252 246 234 234 237 241 242
215 217 216 215 232 242 234 241 259 267 269 272 276 279 279 281 285 286 287 286 285 286 290 288 284 279 279 278 275 272 262 265 268 266 260 252 249 244 230 230 230 235 238
214 210 205 214 229 233 218 239 255 260 263 271 277 280 279 279 280 281 283 287 289 290 291 289 287 282 276 277 276 272 257 257 265 266 264 258 247 242 233 226 229 230 226
212 203 204 225 234 223 213 238 252 256 265 273 278 281 284 285 288 286 290 290 290 293 295 295 296 291 282 274 277 273 263 255 257 260 262 262 256 246 237 230 228 222 216
211 203 205 225 239 227 211 233 249 256 266 275 280 285 291 291 288 288 293 298 295 291 294 294 296 299 296 284 274 273 275 272 257 259 262 264 264 258 244 234 225 216 214
212 203 201 220 238 234 223 230 246 252 258 272 282 289 294 299 300 295 289 290 293 295 295 295 296 299 299 293 289 287 286 281 270 272 273 269 266 258 248 234 222 217 211
208 197 204 219 233 235 236 239 240 238 253 269 280 289 291 293 301 301 291 285 279 273 279 288 287 292 295 290 286 287 285 281 278 288 283 272 259 251 243 230 218 211 205
201 202 212 222 233 233 240 243 235 224 240 266 279 287 295 299 301 305 309 292 279 283 276 263 264 273 267 277 289 287 282 281 274 264 260 262 256 247 241 230 220 210 206
Height
1525 1527 1528 1530 1531 1532 1533 1534 1534 1534 1535 1535 1535 1534 1533 1533 1531 1530 1528 1527 1525 1524 1522 1521 1520 1519 1518 1517 1516 1515 1513 1512 1510 1509 1506 1505 1505 1504 1504 1505 1506 1508 1510
1525 1526 1528 1529 1530 1531 1532 1533 1533 1534 1534 1533 1533 1532 1531 1530 1529 1527 1525 1523 1521 1520 1518 1517 1516 1515 1514 1514 1513 1512 1510 1509 1508 1506 1504 1501 1501 1499 1499 1499 1500 1501 1503
1524 1525 1527 1528 1529 1530 1531 1532 1532 1532 1532 1531 1531 1530 1528 1527 1526 1524 1522 1520 1518 1516 1514 1512 1511 1511 1510 1510 1509 1508 1507 1506 1506 1504 1504 1501 1498 1496 1495 1495 1495 1495 1496
1523 1524 1525 1526 1528 1529 1530 1530 1530 1530 1530 1529 1528 1527 1525 1524 1522 1520 1518 1516 1514 1512 1510 1509 1508 1507 1506 1505 1505 1505 1504 1503 1502 1502 1501 1500 1499 1497 1493 1491 1491 1491 1492
1520 1522 1523 1525 1526 1527 1528 1528 1528 1528 1527 1526 1525 1524 1522 1520 1518 1516 1514 1513 1511 1509 1507 1505 1504 1503 1502 1501 1501 1500 1500 1499 1499 1498 1497 1496 1495 1494 1492 1489 1488 1488 1488
1518 1519 1521 1522 1524 1525 1525 1525 1525 1525 1524 1523 1522 1520 1518 1516 1514 1512 1510 1509 1507 1505 1503 1501 1499 1498 1497 1497 1496 1496 1495 1495 1494 1494 1493 1493 1492 1491 1489 1487 1485 1484 1484
1515 1516 1518 1519 1520 1521 1522 1522 1522 1522 1521 1520 1518 1516 1514 1512 1510 1508 1506 1504 1502 1500 1499 1497 1495 1494 1493 1492 1491 1490 1490 1490 1489 1489 1489 1489 1488 1487 1487 1485 1483 1481 1479
1512 1514 1515 1517 1518 1519 1519 1519 1519 1518 1518 1516 1514 1513 1511 1509 1507 1505 1503 1500 1498 1496 1494 1492 1491 1489 1488 1487 1486 1485 1485 1484 1484 1484 1484 1484 1484 1483 1483 1482 1481 1478 1477
1510 1512 1513 1515 1516 1517 1517 1517 1516 1515 1514 1512 1511 1509 1507 1505 1503 1501 1499 1496 1494 1492 1490 1488 1486 1485 1483 1482 1481 1480 1479 1479 1478 1478 1478 1478 1478 1479 1479 1478 1478 1478 1475
1509 1510 1512 1513 1514 1515 1515 1514 1513 1512 1510 1509 1507 1505 1503 1501 1499 1496 1494 1492 1489 1487 1485 1483 1482 1480 1479 1477 1476 1474 1474 1473 1473 1472 1472 1472 1473 1473 1473 1474 1474 1474 1473
1507 1509 1511 1512 1512 1512 1512 1511 1510 1509 1507 1505 1503 1501 1499 1497 1495 1492 1490 1487 1485 1482 1480 1478 1477 1475 1473 1472 1470 1469 1468 1467 1467 1467 1466 1466 1467 1467 1468 1468 1468 1469 1469
1506 1508 1509 1510 1510 1510 1509 1508 1507 1505 1504 1502 1500 1498 1495 1493 1490 1488 1485 1482 1480 1478 1475 1473 1471 1469 1468 1466 1465 1463 1462 1461 1461 1460 1460 1460 1461 1461 1462 1462 1462 1463 1463
1505 1506 1507 1508 1508 1507 1506 1505 1504 1502 1500 1498 1496 1494 1491 1489 1486 1483 1481 1478 1475 1472 1470 1468 1466 1464 1462 1460 1459 1457 1456 1455 1454 1454 1453 1454 1454 1454 1455 1456 1456 1457 1458
1503 1504 1505 1505 1505 1505 1503 1502 1500 1498 1496 1494 1492 1489 1487 1484 1481 1479 1476 1473 1470 1467 1465 1463 1460 1458 1456 1454 1453 1451 1449 1448 1448 1447 1447 1447 1447 1448 1449 1449 1450 1451 1452
1500 1502 1502 1503 1502 1501 1500 1498 1496 1495 1493 1490 1488 1485 1482 1480 1477 1474 1471 1468 1465 1462 1459 1457 1454 1452 1450 1448 1446 1444 1443 1441 1440 1440 1440 1440 1440 1440 1442 1443 1444 1445 1446
1498 1499 1499 1500 1499 1498 1497 1495 1493 1491 1489 1486 1484 1481 1478 1475 1472 1469 1466 1463 1459 1456 1453 1451 1448 1445 1443 1441 1440 1438 1436 1434 1433 1432 1432 1433 1433 1434 1435 1436 1437 1439 1440
1495 1496 1496 1496 1495 1494 1493 1491 1489 1487 1485 1482 1480 1477 1474 1471 1468 1464 1461 1457 1453 1450 1447 1444 1442 1439 1437 1435 1433 1431 1429 1427 1426 1425 1425 1425 1425 1426 1427 1428 1429 1431 1433
1492 1492 1493 1492 1492 1491 1489 1487 1486 1483 1481 1478 1476 1473 1470 1466 1463 1459 1456 1452 1448 1445 1441 1438 1435 1432 1430 1428 1426 1425 1422 1420 1419 1418 1418 1417 1417 1418 1419 1420 1421 1423 1426
1488 1489 1489 1488 1488 1487 1485 1484 1482 1480 1477 1474 1472 1469 1465 1462 1458 1454 1451 1447 1443 1439 1436 1432 1429 1426 1424 1422 1420 1418 1415 1413 1412 1411 1410 1410 1409 1410 1412 1413 1413 1415 1418
1484 1484 1485 1484 1483 1483 1481 1479 1478 1475 1473 1470 1467 1464 1461 1457 1453 1450 1446 1442 1438 1434 1430 1427 1424 1421 1418 1416 1414 1412 1409 1407 1405 1404 1403 1402 1402 1403 1404 1405 1406 1407 1410
1480 1480 1480 1480 1480 1479 1477 1476 1474 1471 1469 1466 1463 1459 1456 1452 1449 1445 1441 1437 1433 1429 1426 1422 1419 1416 1413 1410 1408 1406 1403 1401 1398 1397 1396 1396 1396 1396 1397 1398 1399 1401 1404
1475 1476 1476 1476 1476 1475 1473 1471 1469 1467 1465 1461 1458 1455 1452 1448 1444 1440 1437 1433 1429 1425 1420 1416 1413 1410 1407 1405 1402 1400 1397 1395 1393 1391 1390 1390 1390 1390 1390 1391 1393 1395 1398
1471 1471 1471 1472 1471 1470 1469 1467 1465 1463 1460 1457 1454 1451 1447 1444 1440 1436 1432 1428 1424 1420 1416 1412 1408 1404 1402 1399 1396 1394 1392 1390 1388 1387 1386 1385 1385 1384 1385 1386 1387 1390 1392
1466 1467 1467 1467 1467 1466 1464 1462 1461 1458 1456 1453 1450 1446 1443 1439 1436 1433 1429 1424 1420 1416 1411 1407 1403 1399 1396 1393 1391 1389 1387 1385 1384 1382 1381 1380 1380 1380 1380 1380 1381 1383 1386
1461 1462 1462 1462 1462 1461 1460 1458 1456 1454 1451 1448 1445 1442 1438 1435 1432 1428 1425 1420 1416 1412 1407 1403 1399 1395 1391 1389 1387 1385 1383 1381 1380 1379 1377 1376 1376 1375 1375 1376 1377 1379 1381
1457 1458 1458 1458 1458 1457 1455 1453 1452 1449 1447 1444 1441 1438 1434 1431 1428 1424 1421 1417 1413 1409 1404 1400 1396 1392 1389 1385 1383 1381 1380 1378 1377 1375 1374 1373 1372 1372 1372 1372 1373 1375 1377